COSMOS 970 DEB, 64972

Orbit data source: Space-Track

COSMOS 970 DEB, 64972 is space debris in LEO originally from a launch on Wed, 21 Dec 1977 UTC launched from the Tyuratam Missile And Space Complex (TTMTR). Debris objects in space refer to the collection of defunct objects orbiting the Earth. Examples of debris include non-operational satellites, rocket bodies, and fragments generated from explosions, collisions, or faulty payload assembly.

Loading next visibility...
Identifier
64972, 1977-121CH
Orbit
LEO
Country
Flag of CISCIS
Related business
Manufacturer
Unknown
Mission
Spacecraft
Bus & Motor
Unknown
Mass
Unknown
Launch date (UTC)
1977-12-21 (48 years ago)
Launch vehicle
Unknown
Launch site
Tyuratam Missile And Space Complex (TTMTR)
Object type
Payload
Rocket body
Debris
Shape & HBR
Unknown shape, 0.1 m
Radar Cross Section
Small (<0.1 m²)

Expand to show TLE details & history
Last TLE update: 1 week ago

TLE from 1 week ago
0 COSMOS 970 DEB
1 64972U 77121CH  26164.38222675  .00000357  00000-0  51305-3 0  9992
2 64972  65.9959 203.0526 0063221  65.7925 294.9725 13.66847024626170
Epoch: 2026-06-13T09:10Z
TLE epoch observation values (Epoch: 2026-06-13T09:10:24.391Z)
Latitude
-0°
Longitude
163.75285°
Altitude
993.423 km
Speed
7.365 km/s
True Right ascension
13h 32m 12s
True Declination
0° 00' 00"
Sunlit
Object was in daylight at epoch
Visualization orbit readout
Latitude
Unknown
Longitude
Unknown
Altitude
Unknown
Speed
Unknown
Apparent Right ascension
Unknown
Apparent Declination
Unknown
Sunlit
N/A
Visualization observer readout
Local Sidereal Time
07:13:05
Azimuth
Unknown
Elevation
Unknown
Doppler factor
Unknown
Orbital elements
Apogee altitude
1,056.121 km
Perigee altitude
962.712 km
Semi-major axis
7,387.553 km
Eccentricity
0.00632
Inclination
65.9959°
RAAN
203.0526°
Arg. of periapsis
65.7925°
True anomaly
294.31359°
Mean anomaly
294.9725°
Eccentric anomaly
294.64326°
Mean motion
3.41816 °/min
Orbital period
105.32 mins
BSTAR
0.00051305
Loading maneuver chart data...
Computing Atmospheric mass density...
Loading historical data...
Loading historical data...
Loading historical data...
Loading historical data...
Loading historical data...
Loading historical data...
Loading historical data...

Documentation

Showing up to 5 results
|